[[{"header":{"parameterUnit":"m.s-1","parameterCategory":1,"la1":30.2991,"la2":30.254,"lo1":-89.0895,"lo2":-89.0444,"dy":0.0017,"dx":0.0017,"nx":28,"ny":28,"refTime":"2024-06-16T21:00:00:Z","depth":0,"parameterNumber":2,"parameterNumberName":"U-component_of_WINDS"},"data":[0,0,0,0,0,0,0,0,0,0,0,0,0,0,0,0,0,0,0,0,0,0,0,0,0,0,0,0,0,0,0,0,0,0,0,0,0,0,0,0,0,0,0,0,0,0,0,0,0,0,0,0,0,0,0,0,0,0,-4.1772,-4.1773,0,-4.1879,-4.188,-4.1882,-4.184,-4.1838,-4.1835,-4.1833,-4.1939,-4.1944,-4.1949,0,0,0,0,0,0,0,0,0,0,0,0,0,-4.1529,-4.1533,-4.1772,-4.1773,-4.1775,-4.1879,-4.1881,-4.1882,-4.1841,-4.1838,-4.1835,-4.1832,-4.1937,-4.1944,-4.195,0,0,0,0,0,0,0,0,0,0,0,0,0,-4.1635,-4.1535,-4.1772,-4.1767,-4.1767,-4.1879,-4.1881,-4.1882,-4.1841,-4.1838,-4.1834,-4.183,-4.1935,-4.1943,-4.1951,-4.2072,0,0,-4.1974,-4.1977,0,0,0,0,0,0,0,0,-4.1629,-4.1644,-4.1766,-4.1767,-4.1768,-4.1843,-4.1834,-4.1946,-4.1842,-4.1813,-4.1833,-4.1829,-4.191,-4.1919,-4.1947,-4.2077,-4.2082,-4.1975,-4.1979,-4.1983,-4.1985,0,0,0,0,0,0,0,-4.1622,-4.1639,-4.1814,-4.1768,-4.1769,-4.1758,-4.1769,-4.1855,-4.1881,-4.1815,-4.1813,-4.1826,-4.191,-4.194,-4.195,-4.2083,-4.1974,-4.1981,-4.1986,-4.1989,-4.2317,-4.2321,0,0,0,0,0,0,-4.1614,-4.1633,-4.1811,-4.1818,-4.1688,-4.1766,-4.1778,-4.1822,-4.188,-4.1885,-4.1829,-4.1824,-4.1929,-4.1941,-4.1953,-4.2098,-4.1983,-4.199,-4.1994,-4.2313,-4.2318,-4.2322,0,0,0,0,0,0,-4.1609,-4.1631,-4.1807,-4.1725,-4.1746,-4.1774,-4.1824,-4.1827,-4.1857,-4.189,-4.1894,-4.1856,-4.1926,-4.1942,-4.2043,-4.2101,-4.1993,-4.2,-4.2308,-4.2314,-4.232,-4.239,0,0,0,0,0,0,-4.1602,-4.1629,-4.1676,-4.1726,-4.1751,-4.1896,-4.1828,-4.1831,-4.1871,-4.1865,-4.1916,-4.1921,-4.1925,-4.2032,-4.2051,-4.211,-4.2006,-4.2303,-4.2311,-4.2318,-4.2382,-4.2398,-4.2411,0,0,0,0,0,-4.1594,-4.1691,-4.1679,-4.17,-4.1811,-4.1899,-4.1913,-4.1916,-4.1876,-4.1923,-4.1944,-4.192,-4.2093,-4.2042,-4.2063,-4.2126,-4.2299,-4.2309,-4.2317,-4.2376,-4.2395,-4.241,0,0,0,0,0,0,-4.1646,-4.1697,-4.1684,-4.1801,-4.1846,-4.1892,-4.1951,-4.1936,-4.1992,-4.1984,-4.1985,-4.1997,-4.21,-4.2123,-4.2066,-4.2246,-4.2189,-4.2203,-4.2227,-4.2245,-4.2259,-4.225,-4.2013,0,0,0,0,0,-4.1671,-4.174,-4.1781,-4.1879,-4.1903,-4.1924,-4.1962,-4.1961,-4.2007,-4.2026,-4.2054,-4.2099,-4.2164,-4.2206,-4.2267,-4.2386,-4.2396,-4.244,-4.2454,-4.2465,-4.2477,-4.254,-4.256,-4.2352,-4.2352,-4.2352,0,0,-4.1723,-4.176,-4.1803,-4.1891,-4.1926,-4.1996,-4.194,-4.2016,-4.2067,-4.2037,-4.2133,-4.2156,-4.2206,-4.2317,-4.2367,-4.2339,-4.2536,-4.2477,-4.2486,-4.2491,-4.2552,-4.2571,-4.2589,-4.2359,-4.2358,-4.2357,0,0,-4.1854,-4.189,-4.1975,-4.2012,-4.2066,-4.2079,-4.2099,-4.2148,-4.2162,-4.226,-4.2238,-4.2299,-4.241,-4.2446,-4.2479,-4.2625,-4.2604,-4.2645,-4.2718,-4.278,-4.2796,-4.2811,-4.2861,-4.2879,-4.2657,-4.2657,-4.2657,0,-4.1912,-4.2017,-4.2021,-4.2099,-4.2138,-4.2115,-4.2201,-4.2236,-4.2307,-4.2333,-4.2302,-4.2441,-4.2473,-4.2591,-4.2627,-4.2655,-4.2677,-4.2638,-4.2794,-4.2808,-4.2822,-4.287,-4.2889,-4.2661,-4.2661,-4.266,-4.266,0,-4.2085,-4.2158,-4.2221,-4.2291,-4.2337,-4.2419,-4.2434,-4.248,-4.2475,-4.2491,-4.259,-4.2628,-4.2696,-4.2724,-4.272,-4.2842,-4.2823,-4.2793,-4.2736,-4.2846,-4.2891,-4.291,-4.2668,-4.2666,-4.2665,-4.2664,0,0,-4.2249,-4.2321,-4.2344,-4.2375,-4.2433,-4.249,-4.257,-4.2638,-4.2677,-4.2727,-4.2793,-4.2889,-4.2861,-4.2899,-4.2899,-4.2954,-4.3065,-4.2917,-4.2918,-4.2941,-4.3199,-4.322,-4.3241,-4.3052,-4.3056,-4.3059,-4.3195,0,-4.2383,-4.2525,-4.2531,-4.266,-4.2728,-4.2707,-4.2777,-4.282,-4.2838,-4.2896,-4.2915,-4.2982,-4.2942,-4.2965,-4.3018,-4.304,-4.3116,-4.303,-4.3112,-4.3115,-4.3098,-4.3265,-4.3287,-4.3414,-4.3212,-4.3215,-4.3218,0,-4.2558,-4.2614,-4.275,-4.2799,-4.2827,-4.289,-4.2952,-4.301,-4.3058,-4.3066,-4.3109,-4.3101,-4.3182,-4.3124,-4.3235,-4.3177,-4.3211,-4.3226,-4.3231,-4.3237,-4.3171,-4.3274,-4.3454,-4.3473,-4.3246,-4.3243,-4.3241,0,-4.2662,-4.2772,-4.2868,-4.2895,-4.2955,-4.2999,-4.3026,-4.307,-4.3111,-4.3165,-4.3191,-4.3254,-4.3288,-4.3336,-4.3345,-4.3302,-4.3456,-4.3399,-4.3464,-4.3464,-4.3495,-4.3493,-4.3682,-4.3521,-4.3521,-4.352,-4.352,0,-4.281,-4.2894,-4.2915,-4.2974,-4.3067,-4.3073,-4.3164,-4.3187,-4.3227,-4.3289,-4.3275,-4.3333,-4.3342,-4.3402,-4.341,-4.35,-4.3516,-4.3524,-4.3524,-4.3524,-4.3523,-4.3545,-4.3535,-4.3525,-4.3524,-4.3523,-4.3522,0,-4.2941,-4.296,-4.3062,-4.311,-4.3124,-4.319,-4.3231,-4.3287,-4.3303,-4.3382,-4.34,-4.3426,-4.3496,-4.351,-4.3592,-4.3597,-4.3704,-4.3697,-4.3688,-4.3686,-4.375,-4.3743,-4.3959,-4.3986,-4.3809,-4.381,-4.3812,0,-4.3034,-4.3097,-4.3153,-4.3194,-4.3223,-4.3289,-4.333,-4.3339,-4.3382,-4.3442,-4.349,-4.3559,-4.3614,-4.3726,-4.3751,-4.3814,-4.3807,-4.3878,-4.3816,-4.3814,-4.3806,-4.3801,-4.3807,-4.3889,-4.3891,-4.3893,-4.3894,0,-4.3195,-4.3201,-4.3261,-4.3325,-4.3375,-4.3426,-4.3474,-4.3508,-4.3522,-4.3572,-4.3644,-4.3687,-4.3771,-4.3839,-4.3902,-4.3928,-4.3913,-4.3914,-4.3932,-4.3931,-4.3923,-4.3926,-4.3718,-4.3908,-4.3907,-4.3906,-4.3905,-4.3904,-4.3308,-4.3364,-4.3411,-4.3479,-4.3516,-4.3562,-4.3616,-4.364,-4.37,-4.377,-4.3772,-4.385,-4.3896,-4.3979,-4.4009,-4.4069,-4.4047,-4.4073,-4.408,-4.4086,-4.4091,-4.3915,-4.4081,-4.4081,-4.408,-4.408,-4.408,0,-4.3467,-4.3497,-4.3559,-4.3627,-4.3681,-4.3664,-4.3716,-4.3761,-4.383,-4.3875,-4.393,-4.4012,-4.4078,-4.4109,-4.4174,-4.4216,-4.4211,-4.4233,-4.4229,-4.4235,-4.4108,-4.4085,-4.4236,-4.4236,-4.4236,-4.4236,-4.4236,-4.4236,-4.3556,-4.3649,-4.366,-4.3771,-4.38,-4.3877,-4.3908,-4.395,-4.3985,-4.4078,-4.4133,-4.4153,-4.4192,-4.426,-4.4319,-4.4326,-4.435,-4.4375,-4.4379,-4.4259,-4.4244,-4.4228,-4.4207,-4.438,-4.438,-4.45,-4.4501,-4.4501]},{"header":{"parameterUnit":"m.s-1","parameterCategory":1,"la1":30.2991,"la2":30.254,"lo1":-89.0895,"lo2":-89.0444,"dy":0.0017,"dx":0.0017,"nx":28,"ny":28,"refTime":"2024-06-16T21:00:00:Z","depth":0,"parameterNumber":3,"parameterNumberName":"V-component_of_WINDS"},"data":[0,0,0,0,0,0,0,0,0,0,0,0,0,0,0,0,0,0,0,0,0,0,0,0,0,0,0,0,0,0,0,0,0,0,0,0,0,0,0,0,0,0,0,0,0,0,0,0,0,0,0,0,0,0,0,0,0,0,4.0316,4.0316,0,4.0294,4.0293,4.0293,4.0227,4.0226,4.0224,4.0223,4.0201,4.0202,4.0202,0,0,0,0,0,0,0,0,0,0,0,0,0,4.0302,4.0303,4.0316,4.0316,4.0315,4.0294,4.0293,4.0293,4.0227,4.0226,4.0224,4.0222,4.0201,4.0201,4.0202,0,0,0,0,0,0,0,0,0,0,0,0,0,4.0297,4.0303,4.0316,4.028,4.0277,4.0294,4.0293,4.0293,4.0228,4.0226,4.0224,4.0221,4.02,4.0201,4.0202,4.0253,0,0,4.0206,4.0206,0,0,0,0,0,0,0,0,4.0298,4.0298,4.0286,4.0283,4.0279,4.0261,4.028,4.028,4.0228,4.0246,4.0223,4.022,4.0223,4.0222,4.0222,4.0252,4.0251,4.0206,4.0207,4.0207,4.0207,0,0,0,0,0,0,0,4.0298,4.0298,4.0307,4.0286,4.0281,4.0265,4.0262,4.028,4.0247,4.0245,4.024,4.0238,4.022,4.0221,4.0221,4.025,4.0206,4.0207,4.0208,4.0208,4.0318,4.032,0,0,0,0,0,0,4.0303,4.0299,4.0308,4.0306,4.0283,4.0267,4.0264,4.0269,4.0247,4.0241,4.024,4.0235,4.0221,4.022,4.022,4.0275,4.0207,4.0208,4.0209,4.0316,4.0319,4.0321,0,0,0,0,0,0,4.0303,4.0305,4.0309,4.0301,4.0301,4.027,4.0276,4.027,4.027,4.0243,4.0237,4.0247,4.0219,4.0219,4.0245,4.0274,4.0209,4.021,4.0313,4.0317,4.032,4.0388,0,0,0,0,0,0,4.0303,4.0305,4.0324,4.0302,4.0301,4.0334,4.0278,4.0271,4.0273,4.0266,4.0248,4.0243,4.0217,4.0243,4.0246,4.0274,4.0211,4.031,4.0315,4.0319,4.0383,4.0393,4.0402,0,0,0,0,0,4.0303,4.0345,4.0325,4.0327,4.0324,4.0335,4.0335,4.0304,4.0275,4.0293,4.0276,4.0243,4.0271,4.0247,4.0249,4.0278,4.0308,4.0314,4.0318,4.0379,4.0391,4.0402,0,0,0,0,0,0,4.0371,4.0341,4.0319,4.0355,4.0348,4.0324,4.0346,4.0319,4.032,4.0314,4.0276,4.0273,4.0303,4.0294,4.0267,4.0325,4.0284,4.029,4.0329,4.0341,4.0351,4.0351,4.0212,0,0,0,0,0,4.039,4.0401,4.0375,4.0409,4.0407,4.0378,4.0381,4.0358,4.035,4.0346,4.0331,4.0324,4.033,4.0336,4.0341,4.0382,4.0376,4.0404,4.0413,4.0421,4.0426,4.0445,4.0456,4.0338,4.0338,4.0337,0,0,4.0429,4.0414,4.0424,4.0422,4.0414,4.0426,4.0375,4.0391,4.04,4.0349,4.0371,4.036,4.035,4.0383,4.0397,4.0376,4.0458,4.0428,4.0434,4.0434,4.0451,4.0462,4.0472,4.0341,4.034,4.034,0,0,4.0506,4.0497,4.0523,4.0517,4.0505,4.0485,4.0492,4.0472,4.0462,4.0485,4.0446,4.0457,4.047,4.0463,4.0462,4.0537,4.0507,4.054,4.0589,4.0608,4.0618,4.0626,4.065,4.066,4.0546,4.0546,4.0546,0,4.0556,4.0573,4.0541,4.0558,4.0558,4.0513,4.0539,4.0534,4.0525,4.0526,4.0503,4.0517,4.0508,4.0538,4.0556,4.0557,4.0563,4.0541,4.0619,4.0627,4.0634,4.0657,4.0666,4.055,4.0549,4.0549,4.0549,0,4.0634,4.0647,4.067,4.0661,4.0664,4.0686,4.0656,4.0663,4.0641,4.0623,4.0646,4.0633,4.0633,4.064,4.0618,4.0667,4.0654,4.0626,4.0584,4.0649,4.067,4.0679,4.0555,4.0554,4.0553,4.0552,0,0,4.0751,4.0725,4.0733,4.0728,4.0712,4.0721,4.0741,4.0742,4.0747,4.0743,4.0758,4.077,4.0744,4.0742,4.072,4.0737,4.0795,4.0706,4.0706,4.0721,4.0845,4.0864,4.0874,4.0776,4.0777,4.0779,4.0845,0,4.0822,4.0853,4.0825,4.0862,4.0872,4.083,4.0847,4.0839,4.0824,4.083,4.0814,4.0822,4.0788,4.0786,4.0802,4.0784,4.0818,4.078,4.0787,4.0788,4.0788,4.0886,4.0906,4.0969,4.0853,4.0854,4.0855,0,4.0908,4.0907,4.0944,4.0925,4.0928,4.0944,4.0941,4.0949,4.0939,4.0927,4.0925,4.0898,4.0915,4.0877,4.09,4.0874,4.0876,4.0868,4.087,4.0867,4.0823,4.0882,4.0988,4.0997,4.0868,4.0867,4.0866,0,4.0986,4.0994,4.1017,4.1015,4.0993,4.1005,4.0997,4.0985,4.0987,4.0985,4.0985,4.0987,4.0986,4.0988,4.0961,4.0936,4.0987,4.0946,4.0975,4.0976,4.0985,4.0985,4.109,4.0992,4.0992,4.0992,4.0992,0,4.1066,4.109,4.1051,4.1065,4.1091,4.1059,4.1085,4.1072,4.1062,4.1072,4.1038,4.1048,4.1014,4.1021,4.1,4.1021,4.1022,4.1012,4.1005,4.1013,4.1014,4.1012,4.1005,4.0994,4.0994,4.0993,4.0993,0,4.1156,4.1132,4.1153,4.1132,4.1127,4.1146,4.1127,4.1139,4.1122,4.1136,4.1137,4.1111,4.1117,4.1091,4.1093,4.108,4.111,4.1098,4.1113,4.1108,4.1137,4.1134,4.1242,4.1254,4.1152,4.1153,4.1154,0,4.1207,4.1224,4.1205,4.1209,4.1202,4.121,4.1211,4.1181,4.1183,4.1173,4.1186,4.119,4.119,4.1202,4.1183,4.1184,4.117,4.1208,4.117,4.1176,4.1167,4.1165,4.1165,4.1215,4.1216,4.1217,4.1218,0,4.13,4.1287,4.129,4.1288,4.1291,4.1289,4.1284,4.129,4.1257,4.1262,4.1267,4.1268,4.127,4.1273,4.127,4.1262,4.1234,4.1231,4.1237,4.1243,4.125,4.1244,4.1131,4.1228,4.1227,4.1226,4.1225,4.1225,4.137,4.1382,4.137,4.1374,4.1367,4.1364,4.1373,4.1357,4.1361,4.136,4.1342,4.1351,4.134,4.1334,4.1328,4.1334,4.1316,4.1326,4.1328,4.133,4.1334,4.1252,4.1334,4.1334,4.1333,4.1333,4.1333,0,4.1458,4.1448,4.1452,4.1446,4.145,4.1424,4.1418,4.1422,4.143,4.1423,4.1424,4.143,4.1433,4.1414,4.1414,4.1423,4.141,4.1424,4.1421,4.1419,4.1351,4.1344,4.1434,4.1434,4.1434,4.1434,4.1434,4.1434,4.1504,4.1523,4.1509,4.1524,4.1514,4.1522,4.152,4.1516,4.151,4.1518,4.152,4.1508,4.1495,4.1494,4.1496,4.149,4.1491,4.1508,4.1498,4.1434,4.1424,4.1415,4.1408,4.1509,4.1509,4.1565,4.1565,4.1566]}]]